Year,Month,Day,Hour,Minute,Value (Times are PST for temperature in C)
2022,10,02,00,00,14.80
2022,10,02,00,01,14.80
2022,10,02,00,02,14.80
2022,10,02,00,03,14.80
2022,10,02,00,04,14.80
2022,10,02,00,05,14.80
2022,10,02,00,06,14.80
2022,10,02,00,07,14.80
2022,10,02,00,08,14.80
2022,10,02,00,09,14.80
2022,10,02,00,10,14.70
2022,10,02,00,11,14.70
2022,10,02,00,12,14.60
2022,10,02,00,13,14.60
2022,10,02,00,14,14.50
2022,10,02,00,15,14.50
2022,10,02,00,16,14.40
2022,10,02,00,17,14.40
2022,10,02,00,18,14.30
2022,10,02,00,19,14.30
2022,10,02,00,20,14.30
2022,10,02,00,21,14.30
2022,10,02,00,22,14.30
2022,10,02,00,23,14.30
2022,10,02,00,24,14.20
2022,10,02,00,25,14.20
2022,10,02,00,26,14.20
2022,10,02,00,27,14.20
2022,10,02,00,28,14.20
2022,10,02,00,29,14.20
2022,10,02,00,30,14.20
2022,10,02,00,31,14.10
2022,10,02,00,32,14.10
2022,10,02,00,33,14.10
2022,10,02,00,34,14.00
2022,10,02,00,35,14.00
2022,10,02,00,36,14.00
2022,10,02,00,37,14.00
2022,10,02,00,38,14.00
2022,10,02,00,39,14.00
2022,10,02,00,40,14.00
2022,10,02,00,41,14.00
2022,10,02,00,42,14.00
2022,10,02,00,43,14.00
2022,10,02,00,44,14.00
2022,10,02,00,45,14.00
2022,10,02,00,46,14.00
2022,10,02,00,47,14.00
2022,10,02,00,48,14.00
2022,10,02,00,49,14.10
2022,10,02,00,50,14.10
2022,10,02,00,51,14.10
2022,10,02,00,52,14.20
2022,10,02,00,53,14.20
2022,10,02,00,54,14.20
2022,10,02,00,55,14.20
2022,10,02,00,56,14.20
2022,10,02,00,57,14.30
2022,10,02,00,58,14.30
2022,10,02,00,59,14.30
2022,10,02,01,00,14.30
2022,10,02,01,01,14.30
2022,10,02,01,02,14.30
2022,10,02,01,03,14.30
2022,10,02,01,04,14.30
2022,10,02,01,05,14.30
2022,10,02,01,06,14.30
2022,10,02,01,07,14.30
2022,10,02,01,08,14.30
2022,10,02,01,09,14.30
2022,10,02,01,10,14.30
2022,10,02,01,11,14.30
2022,10,02,01,12,14.20
2022,10,02,01,13,14.20
2022,10,02,01,14,14.20
2022,10,02,01,15,14.20
2022,10,02,01,16,14.20
2022,10,02,01,17,14.20
2022,10,02,01,18,14.20
2022,10,02,01,19,14.20
2022,10,02,01,20,14.20
2022,10,02,01,21,14.20
2022,10,02,01,22,14.20
2022,10,02,01,23,14.20
2022,10,02,01,24,14.20
2022,10,02,01,25,14.20
2022,10,02,01,26,14.30
2022,10,02,01,27,14.30
2022,10,02,01,28,14.30
2022,10,02,01,29,14.40
2022,10,02,01,30,14.40
2022,10,02,01,31,14.40
2022,10,02,01,32,14.40
2022,10,02,01,33,14.40
2022,10,02,01,34,14.30
2022,10,02,01,35,14.30
2022,10,02,01,36,14.30
2022,10,02,01,37,14.30
2022,10,02,01,38,14.30
2022,10,02,01,39,14.30
2022,10,02,01,40,14.30
2022,10,02,01,41,14.30
2022,10,02,01,42,14.30
2022,10,02,01,43,14.30
2022,10,02,01,44,14.30
2022,10,02,01,45,14.30
2022,10,02,01,46,14.30
2022,10,02,01,47,14.20
2022,10,02,01,48,14.20
2022,10,02,01,49,14.20
2022,10,02,01,50,14.20
2022,10,02,01,51,14.20
2022,10,02,01,52,14.20
2022,10,02,01,53,14.20
2022,10,02,01,54,14.30
2022,10,02,01,55,14.30
2022,10,02,01,56,14.30
2022,10,02,01,57,14.30
2022,10,02,01,58,14.30
2022,10,02,01,59,14.30
2022,10,02,02,00,14.30
2022,10,02,02,01,14.30
2022,10,02,02,02,14.30
2022,10,02,02,03,14.30
2022,10,02,02,04,14.30
2022,10,02,02,05,14.30
2022,10,02,02,06,14.30
2022,10,02,02,07,14.30
2022,10,02,02,08,14.30
2022,10,02,02,09,14.30
2022,10,02,02,10,14.30
2022,10,02,02,11,14.30
2022,10,02,02,12,14.30
2022,10,02,02,13,14.30
2022,10,02,02,14,14.30
2022,10,02,02,15,14.30
2022,10,02,02,16,14.20
2022,10,02,02,17,14.20
2022,10,02,02,18,14.20
2022,10,02,02,19,14.20
2022,10,02,02,20,14.20
2022,10,02,02,21,14.20
2022,10,02,02,22,14.20
2022,10,02,02,23,14.20
2022,10,02,02,24,14.20
2022,10,02,02,25,14.10
2022,10,02,02,26,14.10
2022,10,02,02,27,14.10
2022,10,02,02,28,14.10
2022,10,02,02,29,14.00
2022,10,02,02,30,13.90
2022,10,02,02,31,13.90
2022,10,02,02,32,13.80
2022,10,02,02,33,13.70
2022,10,02,02,34,13.70
2022,10,02,02,35,13.60
2022,10,02,02,36,13.60
2022,10,02,02,37,13.60
2022,10,02,02,38,13.50
2022,10,02,02,39,13.50
2022,10,02,02,40,13.40
2022,10,02,02,41,13.40
2022,10,02,02,42,13.30
2022,10,02,02,43,13.30
2022,10,02,02,44,13.30
2022,10,02,02,45,13.30
2022,10,02,02,46,13.20
2022,10,02,02,47,13.20
2022,10,02,02,48,13.20
2022,10,02,02,49,13.20
2022,10,02,02,50,13.20
2022,10,02,02,51,13.20
2022,10,02,02,52,13.20
2022,10,02,02,53,13.20
2022,10,02,02,54,13.20
2022,10,02,02,55,13.20
2022,10,02,02,56,13.20
2022,10,02,02,57,13.20
2022,10,02,02,58,13.20
2022,10,02,02,59,13.10
2022,10,02,03,00,13.10
2022,10,02,03,01,13.10
2022,10,02,03,02,13.10
2022,10,02,03,03,13.00
2022,10,02,03,04,13.00
2022,10,02,03,05,13.00
2022,10,02,03,06,12.90
2022,10,02,03,07,12.90
2022,10,02,03,08,12.90
2022,10,02,03,09,12.90
2022,10,02,03,10,12.90
2022,10,02,03,11,12.90
2022,10,02,03,12,12.90
2022,10,02,03,13,12.90
2022,10,02,03,14,13.00
2022,10,02,03,15,13.00
2022,10,02,03,16,13.00
2022,10,02,03,17,13.10
2022,10,02,03,18,13.10
2022,10,02,03,19,13.10
2022,10,02,03,20,13.10
2022,10,02,03,21,13.20
2022,10,02,03,22,13.20
2022,10,02,03,23,13.30
2022,10,02,03,24,13.30
2022,10,02,03,25,13.30
2022,10,02,03,26,13.30
2022,10,02,03,27,13.30
2022,10,02,03,28,13.30
2022,10,02,03,29,13.30
2022,10,02,03,30,13.40
2022,10,02,03,31,13.40
2022,10,02,03,32,13.50
2022,10,02,03,33,13.50
2022,10,02,03,34,13.50
2022,10,02,03,35,13.60
2022,10,02,03,36,13.60
2022,10,02,03,37,13.60
2022,10,02,03,38,13.70
2022,10,02,03,39,13.70
2022,10,02,03,40,13.70
2022,10,02,03,41,13.70
2022,10,02,03,42,13.80
2022,10,02,03,43,13.80
2022,10,02,03,44,13.80
2022,10,02,03,45,13.80
2022,10,02,03,46,13.80
2022,10,02,03,47,13.80
2022,10,02,03,48,13.80
2022,10,02,03,49,13.80
2022,10,02,03,50,13.80
2022,10,02,03,51,13.80
2022,10,02,03,52,13.80
2022,10,02,03,53,13.70
2022,10,02,03,54,13.70
2022,10,02,03,55,13.70
2022,10,02,03,56,13.70
2022,10,02,03,57,13.70
2022,10,02,03,58,13.70
2022,10,02,03,59,13.70
2022,10,02,04,00,13.70
2022,10,02,04,01,13.70
2022,10,02,04,02,13.70
2022,10,02,04,03,13.70
2022,10,02,04,04,13.70
2022,10,02,04,05,13.70
2022,10,02,04,06,13.60
2022,10,02,04,07,13.60
2022,10,02,04,08,13.70
2022,10,02,04,09,13.70
2022,10,02,04,10,13.60
2022,10,02,04,11,13.50
2022,10,02,04,12,13.50
2022,10,02,04,13,13.40
2022,10,02,04,14,13.40
2022,10,02,04,15,13.40
2022,10,02,04,16,13.30
2022,10,02,04,17,13.30
2022,10,02,04,18,13.30
2022,10,02,04,19,13.30
2022,10,02,04,20,13.30
2022,10,02,04,21,13.30
2022,10,02,04,22,13.30
2022,10,02,04,23,13.30
2022,10,02,04,24,13.30
2022,10,02,04,25,13.30
2022,10,02,04,26,13.30
2022,10,02,04,27,13.30
2022,10,02,04,28,13.30
2022,10,02,04,29,13.30
2022,10,02,04,30,13.30
2022,10,02,04,31,13.30
2022,10,02,04,32,13.30
2022,10,02,04,33,13.30
2022,10,02,04,34,13.30
2022,10,02,04,35,13.30
2022,10,02,04,36,13.30
2022,10,02,04,37,13.30
2022,10,02,04,38,13.30
2022,10,02,04,39,13.20
2022,10,02,04,40,13.20
2022,10,02,04,41,13.20
2022,10,02,04,42,13.20
2022,10,02,04,43,13.20
2022,10,02,04,44,13.20
2022,10,02,04,45,13.20
2022,10,02,04,46,13.20
2022,10,02,04,47,13.30
2022,10,02,04,48,13.30
2022,10,02,04,49,13.30
2022,10,02,04,50,13.30
2022,10,02,04,51,13.30
2022,10,02,04,52,13.30
2022,10,02,04,53,13.30
2022,10,02,04,54,13.30
2022,10,02,04,55,13.20
2022,10,02,04,56,13.20
2022,10,02,04,57,13.10
2022,10,02,04,58,13.10
2022,10,02,04,59,13.00
2022,10,02,05,00,12.90
2022,10,02,05,01,12.90
2022,10,02,05,02,12.80
2022,10,02,05,03,12.80
2022,10,02,05,04,12.80
2022,10,02,05,05,12.90
2022,10,02,05,06,12.90
2022,10,02,05,07,13.00
2022,10,02,05,08,13.00
2022,10,02,05,09,13.10
2022,10,02,05,10,13.20
2022,10,02,05,11,13.30
2022,10,02,05,12,13.30
2022,10,02,05,13,13.40
2022,10,02,05,14,13.40
2022,10,02,05,15,13.40
2022,10,02,05,16,13.40
2022,10,02,05,17,13.40
2022,10,02,05,18,13.40
2022,10,02,05,19,13.40
2022,10,02,05,20,13.40
2022,10,02,05,21,13.40
2022,10,02,05,22,13.40
2022,10,02,05,23,13.40
2022,10,02,05,24,13.40
2022,10,02,05,25,13.40
2022,10,02,05,26,13.40
2022,10,02,05,27,13.40
2022,10,02,05,28,13.40
2022,10,02,05,29,13.40
2022,10,02,05,30,13.50
2022,10,02,05,31,13.50
2022,10,02,05,32,13.40
2022,10,02,05,33,13.30
2022,10,02,05,34,13.10
2022,10,02,05,35,13.10
2022,10,02,05,36,13.00
2022,10,02,05,37,13.00
2022,10,02,05,38,12.90
2022,10,02,05,39,12.90
2022,10,02,05,40,12.80
2022,10,02,05,41,12.80
2022,10,02,05,42,12.80
2022,10,02,05,43,12.80
2022,10,02,05,44,12.80
2022,10,02,05,45,12.70
2022,10,02,05,46,12.70
2022,10,02,05,47,12.70
2022,10,02,05,48,12.60
2022,10,02,05,49,12.60
2022,10,02,05,50,12.50
2022,10,02,05,51,12.50
2022,10,02,05,52,12.50
2022,10,02,05,53,12.50
2022,10,02,05,54,12.50
2022,10,02,05,55,12.40
2022,10,02,05,56,12.40
2022,10,02,05,57,12.30
2022,10,02,05,58,12.30
2022,10,02,05,59,12.30
2022,10,02,06,00,12.30
2022,10,02,06,01,12.30
2022,10,02,06,02,12.30
2022,10,02,06,03,12.20
2022,10,02,06,04,12.20
2022,10,02,06,05,12.20
2022,10,02,06,06,12.20
2022,10,02,06,07,12.20
2022,10,02,06,08,12.20
2022,10,02,06,09,12.20
2022,10,02,06,10,12.20
2022,10,02,06,11,12.20
2022,10,02,06,12,12.10
2022,10,02,06,13,12.20
2022,10,02,06,14,12.20
2022,10,02,06,15,12.20
2022,10,02,06,16,12.10
2022,10,02,06,17,12.10
2022,10,02,06,18,12.20
2022,10,02,06,19,12.20
2022,10,02,06,20,12.30
2022,10,02,06,21,12.30
2022,10,02,06,22,12.30
2022,10,02,06,23,12.40
2022,10,02,06,24,12.40
2022,10,02,06,25,12.40
2022,10,02,06,26,12.40
2022,10,02,06,27,12.40
2022,10,02,06,28,12.40
2022,10,02,06,29,12.40
2022,10,02,06,30,12.40
2022,10,02,06,31,12.40
2022,10,02,06,32,12.40
2022,10,02,06,33,12.30
2022,10,02,06,34,12.30
2022,10,02,06,35,12.30
2022,10,02,06,36,12.30
2022,10,02,06,37,12.30
2022,10,02,06,38,12.30
2022,10,02,06,39,12.30
2022,10,02,06,40,12.40
2022,10,02,06,41,12.40
2022,10,02,06,42,12.40
2022,10,02,06,43,12.40
2022,10,02,06,44,12.30
2022,10,02,06,45,12.30
2022,10,02,06,46,12.30
2022,10,02,06,47,12.30
2022,10,02,06,48,12.20
2022,10,02,06,49,12.20
2022,10,02,06,50,12.20
2022,10,02,06,51,12.20
2022,10,02,06,52,12.20
2022,10,02,06,53,12.20
2022,10,02,06,54,12.20
2022,10,02,06,55,12.20
2022,10,02,06,56,12.20
2022,10,02,06,57,12.20
2022,10,02,06,58,12.20
2022,10,02,06,59,12.30
2022,10,02,07,00,12.30
2022,10,02,07,01,12.30
2022,10,02,07,02,12.30
2022,10,02,07,03,12.30
2022,10,02,07,04,12.30
2022,10,02,07,05,12.30
2022,10,02,07,06,12.30
2022,10,02,07,07,12.30
2022,10,02,07,08,12.30
2022,10,02,07,09,12.30
2022,10,02,07,10,12.30
2022,10,02,07,11,12.30
2022,10,02,07,12,12.30
2022,10,02,07,13,12.20
2022,10,02,07,14,12.20
2022,10,02,07,15,12.20
2022,10,02,07,16,12.20
2022,10,02,07,17,12.20
2022,10,02,07,18,12.10
2022,10,02,07,19,12.10
2022,10,02,07,20,12.10
2022,10,02,07,21,12.00
2022,10,02,07,22,12.00
2022,10,02,07,23,11.90
2022,10,02,07,24,11.90
2022,10,02,07,25,11.90
2022,10,02,07,26,11.80
2022,10,02,07,27,11.80
2022,10,02,07,28,11.80
2022,10,02,07,29,11.80
2022,10,02,07,30,11.80
2022,10,02,07,31,11.80
2022,10,02,07,32,11.80
2022,10,02,07,33,11.80
2022,10,02,07,34,11.80
2022,10,02,07,35,11.80
2022,10,02,07,36,11.90
2022,10,02,07,37,11.90
2022,10,02,07,38,11.90
2022,10,02,07,39,11.90
2022,10,02,07,40,11.90
2022,10,02,07,41,11.90
2022,10,02,07,42,12.00
2022,10,02,07,43,12.00
2022,10,02,07,44,12.00
2022,10,02,07,45,12.10
2022,10,02,07,46,12.10
2022,10,02,07,47,12.10
2022,10,02,07,48,12.20
2022,10,02,07,49,12.20
2022,10,02,07,50,12.30
2022,10,02,07,51,12.30
2022,10,02,07,52,12.30
2022,10,02,07,53,12.30
2022,10,02,07,54,12.40
2022,10,02,07,55,12.40
2022,10,02,07,56,12.50
2022,10,02,07,57,12.50
2022,10,02,07,58,12.60
2022,10,02,07,59,12.60
2022,10,02,08,00,12.70
2022,10,02,08,01,12.80
2022,10,02,08,02,12.80
2022,10,02,08,03,12.90
2022,10,02,08,04,13.00
2022,10,02,08,05,13.00
2022,10,02,08,06,13.00
2022,10,02,08,07,13.10
2022,10,02,08,08,13.10
2022,10,02,08,09,13.10
2022,10,02,08,10,13.10
2022,10,02,08,11,13.20
2022,10,02,08,12,13.20
2022,10,02,08,13,13.30
2022,10,02,08,14,13.30
2022,10,02,08,15,13.30
2022,10,02,08,16,13.40
2022,10,02,08,17,13.40
2022,10,02,08,18,13.50
2022,10,02,08,19,13.50
2022,10,02,08,20,13.60
2022,10,02,08,21,13.60
2022,10,02,08,22,13.60
2022,10,02,08,23,13.70
2022,10,02,08,24,13.70
2022,10,02,08,25,13.70
2022,10,02,08,26,13.70
2022,10,02,08,27,13.70
2022,10,02,08,28,13.70
2022,10,02,08,29,13.70
2022,10,02,08,30,13.70
2022,10,02,08,31,13.70
2022,10,02,08,32,13.80
2022,10,02,08,33,13.80
2022,10,02,08,34,13.80
2022,10,02,08,35,13.90
2022,10,02,08,36,14.00
2022,10,02,08,37,14.00
2022,10,02,08,38,14.20
2022,10,02,08,39,14.30
2022,10,02,08,40,14.40
2022,10,02,08,41,14.50
2022,10,02,08,42,14.60
2022,10,02,08,43,14.70
2022,10,02,08,44,14.80
2022,10,02,08,45,14.90
2022,10,02,08,46,14.90
2022,10,02,08,47,14.90
2022,10,02,08,48,14.90
2022,10,02,08,49,15.00
2022,10,02,08,50,15.00
2022,10,02,08,51,15.10
2022,10,02,08,52,15.10
2022,10,02,08,53,15.20
2022,10,02,08,54,15.30
2022,10,02,08,55,15.30
2022,10,02,08,56,15.40
2022,10,02,08,57,15.50
2022,10,02,08,58,15.60
2022,10,02,08,59,15.60
2022,10,02,09,00,15.60
2022,10,02,09,01,15.70
2022,10,02,09,02,15.70
2022,10,02,09,03,15.80
2022,10,02,09,04,15.80
2022,10,02,09,05,15.80
2022,10,02,09,06,15.80
2022,10,02,09,07,15.80
2022,10,02,09,08,15.80
2022,10,02,09,09,15.80
2022,10,02,09,10,15.80
2022,10,02,09,11,15.70
2022,10,02,09,12,15.70
2022,10,02,09,13,15.70
2022,10,02,09,14,15.60
2022,10,02,09,15,15.60
2022,10,02,09,16,15.60
2022,10,02,09,17,15.60
2022,10,02,09,18,15.60
2022,10,02,09,19,15.60
2022,10,02,09,20,15.60
2022,10,02,09,21,15.60
2022,10,02,09,22,15.60
2022,10,02,09,23,15.60
2022,10,02,09,24,15.70
2022,10,02,09,25,15.70
2022,10,02,09,26,15.70
2022,10,02,09,27,15.80
2022,10,02,09,28,15.80
2022,10,02,09,29,15.80
2022,10,02,09,30,15.90
2022,10,02,09,31,16.00
2022,10,02,09,32,16.10
2022,10,02,09,33,16.10
2022,10,02,09,34,16.20
2022,10,02,09,35,16.30
2022,10,02,09,36,16.40
2022,10,02,09,37,16.50
2022,10,02,09,38,16.70
2022,10,02,09,39,16.80
2022,10,02,09,40,16.90
2022,10,02,09,41,17.00
2022,10,02,09,42,17.10
2022,10,02,09,43,17.20
2022,10,02,09,44,17.30
2022,10,02,09,45,17.30
2022,10,02,09,46,17.40
2022,10,02,09,47,17.50
2022,10,02,09,48,17.50
2022,10,02,09,49,17.60
2022,10,02,09,50,17.70
2022,10,02,09,51,17.80
2022,10,02,09,52,17.90
2022,10,02,09,53,17.90
2022,10,02,09,54,18.00
2022,10,02,09,55,18.10
2022,10,02,09,56,18.10
2022,10,02,09,57,18.20
2022,10,02,09,58,18.20
2022,10,02,09,59,18.20
2022,10,02,10,00,18.20
2022,10,02,10,01,18.20
2022,10,02,10,02,18.30
2022,10,02,10,03,18.40
2022,10,02,10,04,18.40
2022,10,02,10,05,18.50
2022,10,02,10,06,18.50
2022,10,02,10,07,18.60
2022,10,02,10,08,18.60
2022,10,02,10,09,18.70
2022,10,02,10,10,18.80
2022,10,02,10,11,18.80
2022,10,02,10,12,18.90
2022,10,02,10,13,18.90
2022,10,02,10,14,18.90
2022,10,02,10,15,18.90
2022,10,02,10,16,18.90
2022,10,02,10,17,18.90
2022,10,02,10,18,19.00
2022,10,02,10,19,19.10
2022,10,02,10,20,19.10
2022,10,02,10,21,19.10
2022,10,02,10,22,19.20
2022,10,02,10,23,19.20
2022,10,02,10,24,19.30
2022,10,02,10,25,19.30
2022,10,02,10,26,19.40
2022,10,02,10,27,19.40
2022,10,02,10,28,19.50
2022,10,02,10,29,19.60
2022,10,02,10,30,19.60
2022,10,02,10,31,19.70
2022,10,02,10,32,19.80
2022,10,02,10,33,19.80
2022,10,02,10,34,19.90
2022,10,02,10,35,19.90
2022,10,02,10,36,19.90
2022,10,02,10,37,20.00
2022,10,02,10,38,20.10
2022,10,02,10,39,20.20
2022,10,02,10,40,20.20
2022,10,02,10,41,20.10
2022,10,02,10,42,19.80
2022,10,02,10,43,19.60
2022,10,02,10,44,19.60
2022,10,02,10,45,19.50
2022,10,02,10,46,19.50
2022,10,02,10,47,19.60
2022,10,02,10,48,19.60
2022,10,02,10,49,19.70
2022,10,02,10,50,19.60
2022,10,02,10,51,19.40
2022,10,02,10,52,19.30
2022,10,02,10,53,19.10
2022,10,02,10,54,18.90
2022,10,02,10,55,18.90
2022,10,02,10,56,18.80
2022,10,02,10,57,18.70
2022,10,02,10,58,18.80
2022,10,02,10,59,18.90
2022,10,02,11,00,19.00
2022,10,02,11,01,19.10
2022,10,02,11,02,19.20
2022,10,02,11,03,19.30
2022,10,02,11,04,19.40
2022,10,02,11,05,19.60
2022,10,02,11,06,19.80
2022,10,02,11,07,20.00
2022,10,02,11,08,20.10
2022,10,02,11,09,20.20
2022,10,02,11,10,20.30
2022,10,02,11,11,20.30
2022,10,02,11,12,20.40
2022,10,02,11,13,20.50
2022,10,02,11,14,20.60
2022,10,02,11,15,20.70
2022,10,02,11,16,20.80
2022,10,02,11,17,20.80
2022,10,02,11,18,20.90
2022,10,02,11,19,20.90
2022,10,02,11,20,20.90
2022,10,02,11,21,20.90
2022,10,02,11,22,20.90
2022,10,02,11,23,21.00
2022,10,02,11,24,21.00
2022,10,02,11,25,21.00
2022,10,02,11,26,21.10
2022,10,02,11,27,21.10
2022,10,02,11,28,21.20
2022,10,02,11,29,21.20
2022,10,02,11,30,21.20
2022,10,02,11,31,21.10
2022,10,02,11,32,21.10
2022,10,02,11,33,21.10
2022,10,02,11,34,21.00
2022,10,02,11,35,21.00
2022,10,02,11,36,20.90
2022,10,02,11,37,20.90
2022,10,02,11,38,20.90
2022,10,02,11,39,20.90
2022,10,02,11,40,20.90
2022,10,02,11,41,21.00
2022,10,02,11,42,21.00
2022,10,02,11,43,21.10
2022,10,02,11,44,21.20
2022,10,02,11,45,21.20
2022,10,02,11,46,21.30
2022,10,02,11,47,21.30
2022,10,02,11,48,21.30
2022,10,02,11,49,21.20
2022,10,02,11,50,21.20
2022,10,02,11,51,21.20
2022,10,02,11,52,21.20
2022,10,02,11,53,21.20
2022,10,02,11,54,21.20
2022,10,02,11,55,21.20
2022,10,02,11,56,21.20
2022,10,02,11,57,21.30
2022,10,02,11,58,21.30
2022,10,02,11,59,21.30
2022,10,02,12,00,21.30
2022,10,02,12,01,21.30
2022,10,02,12,02,21.40
2022,10,02,12,03,21.50
2022,10,02,12,04,21.60
2022,10,02,12,05,21.60
2022,10,02,12,06,21.60
2022,10,02,12,07,21.60
2022,10,02,12,08,21.60
2022,10,02,12,09,21.60
2022,10,02,12,10,21.50
2022,10,02,12,11,21.40
2022,10,02,12,12,21.40
2022,10,02,12,13,21.40
2022,10,02,12,14,21.60
2022,10,02,12,15,21.70
2022,10,02,12,16,21.80
2022,10,02,12,17,21.90
2022,10,02,12,18,22.10
2022,10,02,12,19,22.20
2022,10,02,12,20,22.30
2022,10,02,12,21,22.30
2022,10,02,12,22,22.40
2022,10,02,12,23,22.40
2022,10,02,12,24,22.40
2022,10,02,12,25,22.40
2022,10,02,12,26,22.40
2022,10,02,12,27,22.50
2022,10,02,12,28,22.60
2022,10,02,12,29,22.60
2022,10,02,12,30,22.70
2022,10,02,12,31,22.80
2022,10,02,12,32,22.90
2022,10,02,12,33,22.90
2022,10,02,12,34,23.00
2022,10,02,12,35,23.10
2022,10,02,12,36,23.10
2022,10,02,12,37,23.10
2022,10,02,12,38,23.20
2022,10,02,12,39,23.20
2022,10,02,12,40,23.30
2022,10,02,12,41,23.10
2022,10,02,12,42,22.90
2022,10,02,12,43,22.90
2022,10,02,12,44,22.90
2022,10,02,12,45,22.90
2022,10,02,12,46,22.90
2022,10,02,12,47,22.90
2022,10,02,12,48,22.90
2022,10,02,12,49,22.90
2022,10,02,12,50,22.90
2022,10,02,12,51,22.90
2022,10,02,12,52,22.90
2022,10,02,12,53,22.90
2022,10,02,12,54,22.90
2022,10,02,12,55,23.00
2022,10,02,12,56,23.10
2022,10,02,12,57,23.10
2022,10,02,12,58,23.20
2022,10,02,12,59,23.30
2022,10,02,13,00,23.30
2022,10,02,13,01,23.40
2022,10,02,13,02,23.40
2022,10,02,13,03,23.60
2022,10,02,13,04,23.50
2022,10,02,13,05,23.30
2022,10,02,13,06,23.20
2022,10,02,13,07,23.20
2022,10,02,13,08,23.10
2022,10,02,13,09,23.00
2022,10,02,13,10,22.90
2022,10,02,13,11,22.90
2022,10,02,13,12,22.80
2022,10,02,13,13,22.80
2022,10,02,13,14,22.80
2022,10,02,13,15,22.90
2022,10,02,13,16,22.90
2022,10,02,13,17,22.80
2022,10,02,13,18,22.80
2022,10,02,13,19,22.80
2022,10,02,13,20,22.80
2022,10,02,13,21,22.90
2022,10,02,13,22,23.10
2022,10,02,13,23,23.20
2022,10,02,13,24,23.30
2022,10,02,13,25,23.20
2022,10,02,13,26,23.20
2022,10,02,13,27,23.10
2022,10,02,13,28,23.20
2022,10,02,13,29,23.20
2022,10,02,13,30,23.30
2022,10,02,13,31,23.50
2022,10,02,13,32,23.60
2022,10,02,13,33,23.70
2022,10,02,13,34,23.70
2022,10,02,13,35,23.70
2022,10,02,13,36,23.90
2022,10,02,13,37,24.00
2022,10,02,13,38,24.10
2022,10,02,13,39,24.10
2022,10,02,13,40,24.10
2022,10,02,13,41,24.10
2022,10,02,13,42,24.00
2022,10,02,13,43,23.80
2022,10,02,13,44,23.70
2022,10,02,13,45,23.70
2022,10,02,13,46,23.70
2022,10,02,13,47,23.80
2022,10,02,13,48,24.00
2022,10,02,13,49,24.10
2022,10,02,13,50,24.20
2022,10,02,13,51,24.20
2022,10,02,13,52,24.30
2022,10,02,13,53,24.30
2022,10,02,13,54,24.30
2022,10,02,13,55,24.30
2022,10,02,13,56,24.40
2022,10,02,13,57,24.50
2022,10,02,13,58,24.50
2022,10,02,13,59,24.60
2022,10,02,14,00,24.60
2022,10,02,14,01,24.60
2022,10,02,14,02,24.60
2022,10,02,14,03,24.60
2022,10,02,14,04,24.40
2022,10,02,14,05,24.20
2022,10,02,14,06,24.10
2022,10,02,14,07,24.10
2022,10,02,14,08,24.20
2022,10,02,14,09,24.20
2022,10,02,14,10,24.10
2022,10,02,14,11,24.10
2022,10,02,14,12,24.00
2022,10,02,14,13,23.90
2022,10,02,14,14,23.80
2022,10,02,14,15,23.70
2022,10,02,14,16,23.70
2022,10,02,14,17,23.70
2022,10,02,14,18,23.70
2022,10,02,14,19,23.70
2022,10,02,14,20,23.60
2022,10,02,14,21,23.60
2022,10,02,14,22,23.50
2022,10,02,14,23,23.40
2022,10,02,14,24,23.30
2022,10,02,14,25,23.10
2022,10,02,14,26,23.00
2022,10,02,14,27,22.80
2022,10,02,14,28,22.70
2022,10,02,14,29,22.70
2022,10,02,14,30,22.70
2022,10,02,14,31,22.70
2022,10,02,14,32,22.60
2022,10,02,14,33,22.70
2022,10,02,14,34,22.70
2022,10,02,14,35,22.70
2022,10,02,14,36,22.70
2022,10,02,14,37,22.70
2022,10,02,14,38,22.80
2022,10,02,14,39,22.80
2022,10,02,14,40,22.80
2022,10,02,14,41,22.80
2022,10,02,14,42,22.70
2022,10,02,14,43,22.50
2022,10,02,14,44,22.40
2022,10,02,14,45,22.30
2022,10,02,14,46,22.20
2022,10,02,14,47,22.10
2022,10,02,14,48,22.10
2022,10,02,14,49,22.20
2022,10,02,14,50,22.20
2022,10,02,14,51,22.10
2022,10,02,14,52,22.00
2022,10,02,14,53,21.90
2022,10,02,14,54,21.90
2022,10,02,14,55,21.80
2022,10,02,14,56,21.80
2022,10,02,14,57,21.80
2022,10,02,14,58,21.80
2022,10,02,14,59,21.80
2022,10,02,15,00,21.90
2022,10,02,15,01,22.00
2022,10,02,15,02,22.10
2022,10,02,15,03,22.10
2022,10,02,15,04,22.10
2022,10,02,15,05,22.20
2022,10,02,15,06,22.30
2022,10,02,15,07,22.40
2022,10,02,15,08,22.50
2022,10,02,15,09,22.60
2022,10,02,15,10,22.60
2022,10,02,15,11,22.60
2022,10,02,15,12,22.60
2022,10,02,15,13,22.50
2022,10,02,15,14,22.50
2022,10,02,15,15,22.50
2022,10,02,15,16,22.40
2022,10,02,15,17,22.40
2022,10,02,15,18,22.40
2022,10,02,15,19,22.30
2022,10,02,15,20,22.30
2022,10,02,15,21,22.30
2022,10,02,15,22,22.20
2022,10,02,15,23,22.10
2022,10,02,15,24,22.10
2022,10,02,15,25,22.00
2022,10,02,15,26,22.00
2022,10,02,15,27,22.00
2022,10,02,15,28,22.00
2022,10,02,15,29,21.90
2022,10,02,15,30,21.80
2022,10,02,15,31,21.70
2022,10,02,15,32,21.60
2022,10,02,15,33,21.60
2022,10,02,15,34,21.60
2022,10,02,15,35,21.60
2022,10,02,15,36,21.60
2022,10,02,15,37,21.60
2022,10,02,15,38,21.60
2022,10,02,15,39,21.60
2022,10,02,15,40,21.60
2022,10,02,15,41,21.60
2022,10,02,15,42,21.60
2022,10,02,15,43,21.60
2022,10,02,15,44,21.60
2022,10,02,15,45,21.40
2022,10,02,15,46,21.40
2022,10,02,15,47,21.30
2022,10,02,15,48,21.30
2022,10,02,15,49,21.30
2022,10,02,15,50,21.20
2022,10,02,15,51,21.20
2022,10,02,15,52,21.20
2022,10,02,15,53,21.20
2022,10,02,15,54,21.10
2022,10,02,15,55,21.00
2022,10,02,15,56,21.00
2022,10,02,15,57,21.00
2022,10,02,15,58,21.00
2022,10,02,15,59,21.00
2022,10,02,16,00,21.10
2022,10,02,16,01,21.10
2022,10,02,16,02,21.10
2022,10,02,16,03,21.20
2022,10,02,16,04,21.30
2022,10,02,16,05,21.30
2022,10,02,16,06,21.20
2022,10,02,16,07,21.20
2022,10,02,16,08,21.10
2022,10,02,16,09,21.00
2022,10,02,16,10,20.90
2022,10,02,16,11,20.70
2022,10,02,16,12,20.60
2022,10,02,16,13,20.50
2022,10,02,16,14,20.40
2022,10,02,16,15,20.30
2022,10,02,16,16,20.20
2022,10,02,16,17,20.20
2022,10,02,16,18,20.20
2022,10,02,16,19,20.20
2022,10,02,16,20,20.20
2022,10,02,16,21,20.20
2022,10,02,16,22,20.20
2022,10,02,16,23,20.20
2022,10,02,16,24,20.20
2022,10,02,16,25,20.30
2022,10,02,16,26,20.40
2022,10,02,16,27,20.50
2022,10,02,16,28,20.50
2022,10,02,16,29,20.60
2022,10,02,16,30,20.60
2022,10,02,16,31,20.60
2022,10,02,16,32,20.70
2022,10,02,16,33,20.70
2022,10,02,16,34,20.80
2022,10,02,16,35,20.80
2022,10,02,16,36,20.90
2022,10,02,16,37,21.00
2022,10,02,16,38,21.00
2022,10,02,16,39,21.10
2022,10,02,16,40,21.20
2022,10,02,16,41,21.30
2022,10,02,16,42,21.30
2022,10,02,16,43,21.30
2022,10,02,16,44,21.30
2022,10,02,16,45,21.40
2022,10,02,16,46,21.40
2022,10,02,16,47,21.40
2022,10,02,16,48,21.30
2022,10,02,16,49,21.30
2022,10,02,16,50,21.20
2022,10,02,16,51,21.10
2022,10,02,16,52,20.90
2022,10,02,16,53,20.80
2022,10,02,16,54,20.80
2022,10,02,16,55,20.80
2022,10,02,16,56,20.80
2022,10,02,16,57,20.80
2022,10,02,16,58,20.80
2022,10,02,16,59,20.80
2022,10,02,17,00,20.80
2022,10,02,17,01,20.80
2022,10,02,17,02,20.80
2022,10,02,17,03,20.70
2022,10,02,17,04,20.70
2022,10,02,17,05,20.70
2022,10,02,17,06,20.70
2022,10,02,17,07,20.70
2022,10,02,17,08,20.70
2022,10,02,17,09,20.80
2022,10,02,17,10,20.80
2022,10,02,17,11,20.80
2022,10,02,17,12,20.90
2022,10,02,17,13,20.90
2022,10,02,17,14,20.90
2022,10,02,17,15,21.00
2022,10,02,17,16,21.00
2022,10,02,17,17,21.00
2022,10,02,17,18,21.00
2022,10,02,17,19,21.10